Liberia, Costa Rica

5:43 AM CST on February 08, 2016 (GMT -0600)
Daniel Oduber Quiros International

Weather History for MRLB - March, 2013

Change the Weather History Date:

Monday, March 25, 2013

  Actual Average Record
Temperature  
Mean Temperature 84 °F -  
Max Temperature 95 °F 93 °F 98 °F (2005)
Min Temperature 72 °F 76 °F 64 °F (2011)
Cooling Degree Days 18    
Growing Degree Days 34 (Base 50)    
Moisture  
Dew Point 71 °F    
Average Humidity 62    
Maximum Humidity 88    
Minimum Humidity 36    
Precipitation  
Precipitation 0.00 in - - ()
Sea Level Pressure  
Sea Level Pressure 29.78 in    
Wind  
Wind Speed 7 mph ()    
Max Wind Speed 18 mph    
Max Gust Speed -    
Visibility 7.9 miles    
Events      
Averages and records for this station are not official NWS values.
T = Trace of Precipitation, MM = Missing Value Source: Averaged Metar Reports

Daily Weather History Graph

Daily Weather History Graph

Search for Another Location

Airport or City:

Trip Planner

Search our weather history database for the weather conditions in past years. The results will help you decide how hot, cold, wet, or windy it might be!

Date:

Astronomy

Mar. 25, 2013 Rise Set
Actual Time 5:43 AM CST 5:52 PM CST
Civil Twilight 5:22 AM CST 6:14 PM CST
Nautical Twilight 4:57 AM CST 6:38 PM CST
Astronomical Twilight 4:33 AM CST 7:03 PM CST
Moon 4:33 PM CST (3/25) 4:11 AM CST (3/25)
Length of Visible Light 12h 51m
Length of Day
12h 09m
Waxing Gibbous, 97% of the Moon is Illuminated
Mar 25
Waxing Gibbous
Mar 27
Full
Apr 2
Last Quarter
Apr 10
New
Apr 18
First Quarter

Hourly Weather History & Observations

Time (CST) Temp. Heat Index Dew Point Humidity Pressure Visibility Wind Dir Wind Speed Gust Speed Precip Events Conditions
6:00 AM 73 °F - 69 °F 85% 29.81 in 9 mi NE 10.4 mph - -   Overcast
6:00 AM 73.4 °F - 69.8 °F 88% 29.79 in 6.2 mi NE 4.6 mph - N/A   Scattered Clouds
7:00 AM 77.0 °F - 69.8 °F 78% 29.81 in - NNE 4.6 mph - N/A   Clear
8:00 AM 82.4 °F 87.2 °F 71.6 °F 70% 29.83 in - NNW 3.5 mph - N/A   Clear
9:00 AM 87 °F - 70 °F 49%  in 12 mi North 3.5 mph - -  
9:00 AM 87.8 °F 92.6 °F 69.8 °F 55% 29.85 in 6.2 mi North 3.5 mph - N/A   Scattered Clouds
10:00 AM 89.6 °F 94.7 °F 69.8 °F 52% 29.84 in 6.2 mi West 2.3 mph - N/A   Scattered Clouds
11:00 AM 93.2 °F 97.7 °F 68.0 °F 44% 29.82 in 6.2 mi WNW 4.6 mph - N/A   Scattered Clouds
12:00 PM 92 °F - 68 °F 36% 29.80 in 12 mi West 8.1 mph - -   Scattered Clouds
12:00 PM 91.4 °F 95.4 °F 68.0 °F 46% 29.78 in 6.2 mi West 8.1 mph - N/A   Mostly Cloudy
1:00 PM 93.2 °F 98.8 °F 69.8 °F 46% 29.74 in 6.2 mi West 15.0 mph - N/A   Scattered Clouds
2:00 PM 89.6 °F 96.2 °F 71.6 °F 55% 29.72 in 6.2 mi West 17.3 mph - N/A   Scattered Clouds
3:00 PM 90 °F - 70 °F 43% 29.72 in 12 mi West 3.5 mph - -   Scattered Clouds
3:00 PM 89.6 °F 94.7 °F 69.8 °F 52% 29.71 in 6.2 mi West 15.0 mph - N/A   Scattered Clouds
4:00 PM 87.8 °F 92.6 °F 69.8 °F 55% 29.70 in 6.2 mi West 18.4 mph - N/A   Scattered Clouds
5:00 PM 86.0 °F 91.8 °F 71.6 °F 62% 29.72 in 6.2 mi West 12.7 mph - N/A   Scattered Clouds
6:00 PM 83 °F - 71 °F 60% 29.75 in 12 mi West 9.2 mph - -   Clear
6:00 PM 82.4 °F 87.2 °F 71.6 °F 70% 29.73 in - West 9.2 mph - N/A   Clear
7:00 PM 80.6 °F 85.4 °F 73.4 °F 79% 29.76 in - West 10.4 mph - N/A   Clear
8:00 PM 80.6 °F 85.4 °F 73.4 °F 79% 29.81 in - West 6.9 mph - N/A   Clear
9:00 PM 80.6 °F 85.4 °F 73.4 °F 79% 29.83 in - West 5.8 mph - N/A   Clear
10:00 PM 78.8 °F - 73.4 °F 83% 29.84 in - Calm Calm - N/A   Clear